Hourly Data Report for October 20, 2016

TORONTO CITY
ONTARIO

43°40'00.000" N
79°24'00.000" W
112.50 m
6158355
71508
XTO

Download Data

Hourly Data (October 2016)
Hourly Data Report for October 20, 2016
TIME
LST
Temp Definition
°C
Dew Point Definition
°C
Rel Hum Definition
%
Precip. Amount Definition
mm

Wind Dir Definition
10's deg

Wind Spd Definition
km/h
Visibility Definition
km
Stn Press Definition
kPa
Hmdx Definition


Wind Chill Definition


Weather Definition


00:00 14.7 11.6 82 0.0 LegendMM LegendMM   100.56     LegendNANA
01:00 15.3 12.2 82 0.0 LegendMM LegendMM   100.60     LegendNANA
02:00 16.1 11.6 75 0.0 LegendMM LegendMM   100.63     LegendNANA
03:00 14.5 12.7 89 0.0 LegendMM LegendMM   100.63     LegendNANA
04:00 14.5 12.0 85 0.0 LegendMM LegendMM   100.57     LegendNANA
05:00 14.5 12.3 87 0.0 LegendMM LegendMM   100.51     LegendNANA
06:00 15.2 13.0 87 0.2 LegendMM LegendMM   100.57     LegendNANA
07:00 14.4 12.1 86 1.1 LegendMM LegendMM   100.63     LegendNANA
08:00 13.9 10.2 79 0.4 LegendMM LegendMM   100.54     LegendNANA
09:00 14.5 10.6 77 0.2 LegendMM LegendMM   100.54     LegendNANA
10:00 14.3 9.2 72 0.3 LegendMM LegendMM   100.48     LegendNANA
11:00 14.2 8.5 68 0.0 LegendMM LegendMM   100.46     LegendNANA
12:00 13.4 10.1 80 0.0 LegendMM LegendMM   100.40     LegendNANA
13:00 12.8 9.9 82 0.5 LegendMM LegendMM   100.33     LegendNANA
14:00 12.4 10.6 89 0.6 LegendMM LegendMM   100.29     LegendNANA
15:00 12.3 10.5 89 0.0 LegendMM LegendMM   100.28     LegendNANA
16:00 11.8 9.9 89 0.3 LegendMM LegendMM   100.27     LegendNANA
17:00 11.6 10.0 90 0.8 LegendMM LegendMM   100.21     LegendNANA
18:00 11.6 10.0 90 0.8 LegendMM LegendMM   100.20     LegendNANA
19:00 11.7 10.0 89 0.2 LegendMM LegendMM   100.25     LegendNANA
20:00 11.7 10.0 89 0.4 LegendMM LegendMM   100.15     LegendNANA
21:00 11.5 9.7 88 0.0 LegendMM LegendMM   100.13     LegendNANA
22:00 11.6 9.5 87 0.0 LegendMM LegendMM   100.04     LegendNANA
23:00 12.0 9.4 84 0.0 LegendMM LegendMM   100.01     LegendNANA

Notes on Data Quality.

Legend

  • E = Estimated
  • M = Missing
  • NA = Not Available*
  • [empty] = Indicates an unobserved value
Date modified: